Location: Chefe Valiua
(16.5342°S, 37.2214°E)
Time: 04:31:34
(UTC+00:00)

Envisat - Pass Details

Date: 19 June 2021
Orbit: 764 x 766 km, 98.2° (Epoch: 27 July)

Event Time Altitude Azimuth Distance (km) Brightness Sun altitude
Rises 03:19:22 0° 339° (NNW) 3,211 6.2 -9.4°
Reaches altitude 10° 03:22:21 10° 321° (NW) 2,292 5.3 -8.7°
Maximum altitude 03:25:44 18° 278° (W) 1,804 4.4 -8.0°
Drops below altitude 10° 03:29:09 10° 236° (SW) 2,308 4.8 -7.2°
Enters shadow 03:30:14 - 227° (SW) 2,615 5.2 -7.0°
